This is the latest recevied weather packets stored in our database for station/object VK2ZAZ-10. If no packets are shown the sender has not sent any weather packets the latest 10 day(s).
| Time | Temp. | Humidity | Pressure | Rain* | Wind** | Luminosity | Snow |
|---|---|---|---|---|---|---|---|
| 1777900460 | 19.44° C | 49% | 1017.3 hPa | - | - | - | - |
| 1777898660 | 20° C | 48% | 1017.5 hPa | - | - | - | - |
| 1777896859 | 20.56° C | 51% | 1017.7 hPa | - | - | - | - |
| 1777895058 | 20.56° C | 52% | 1017.6 hPa | - | - | - | - |
| 1777893258 | 21.11° C | 53% | 1017.2 hPa | - | - | - | - |
| 1777891459 | 21.67° C | 54% | 1016.3 hPa | - | - | - | - |
| 1777889659 | 21.67° C | 54% | 1016.1 hPa | - | - | - | - |
| 1777887859 | 21.67° C | 54% | 1015.9 hPa | - | - | - | - |
| 1777886058 | 22.22° C | 54% | 1015.6 hPa | - | - | - | - |
| 1777884260 | 22.22° C | 54% | 1015.2 hPa | - | - | - | - |
| 1777882458 | 22.22° C | 54% | 1014.6 hPa | - | - | - | - |
| 1777880658 | 22.78° C | 56% | 1014.2 hPa | - | - | - | - |
| 1777878858 | 22.78° C | 58% | 1013.8 hPa | - | - | - | - |
| 1777877059 | 23.33° C | 58% | 1013.9 hPa | - | - | - | - |
| 1777875259 | 23.33° C | 58% | 1013.5 hPa | - | - | - | - |
| 1777873458 | 23.33° C | 58% | 1013.4 hPa | - | - | - | - |
| 1777871658 | 23.33° C | 58% | 1013.4 hPa | - | - | - | - |
| 1777869858 | 23.33° C | 58% | 1013 hPa | - | - | - | - |
| 1777868059 | 23.33° C | 58% | 1013 hPa | - | - | - | - |
| 1777866260 | 22.78° C | 59% | 1013.2 hPa | - | - | - | - |
| 1777864457 | 22.22° C | 60% | 1013.5 hPa | - | - | - | - |
| 1777862657 | 22.22° C | 60% | 1014 hPa | - | - | - | - |
| 1777860857 | 21.67° C | 60% | 1014.8 hPa | - | - | - | - |
| 1777859058 | 21.67° C | 61% | 1015.4 hPa | - | - | - | - |
| 1777857257 | 21.67° C | 61% | 1015.8 hPa | - | - | - | - |
* Rain since midnight (hover to see other rain measurements)
** Current wind speed in m/s (hover to see current wind gust speed)